Fulton, NY

10:44 PM EST on November 22, 2017 (GMT -0500)
Oswego County

Weather History for KFZY - February, 2013

Change the Weather History Date:

Saturday, February 2, 2013

  Actual Average (KSYR) Record (KSYR)
Temperature  
Mean Temperature 24 °F -  
Max Temperature 35 °F 33 °F 53 °F (1973)
Min Temperature 12 °F 15 °F -19 °F (1961)
Degree Days  
Heating Degree Days 42    
Moisture  
Dew Point 11 °F    
Average Humidity 54    
Maximum Humidity 88    
Minimum Humidity 34    
Precipitation  
Precipitation 0.08 in - - ()
Sea Level Pressure  
Sea Level Pressure 30.10 in    
Wind  
Wind Speed 4 mph (South)    
Max Wind Speed 15 mph    
Max Gust Speed 20 mph    
Visibility 6 miles    
Events Snow    
Averages and records for this station are not official NWS values.
T = Trace of Precipitation, MM = Missing Value Source: NWS Daily Summary

Daily Weather History Graph

Daily Weather History Graph

Search for Another Location

Airport or City:

Trip Planner

Search our weather history database for the weather conditions in past years. The results will help you decide how hot, cold, wet, or windy it might be!

Date:

Astronomy

Feb. 02, 2013 Rise Set
Actual Time 7:20 AM EST 5:19 PM EST
Civil Twilight 6:49 AM EST 5:49 PM EST
Nautical Twilight 6:15 AM EST 6:23 PM EST
Astronomical Twilight 5:42 AM EST 6:56 PM EST
Moon No Moon Rise 10:15 AM EST (2/2)
Length of Visible Light 10h 59m
Length of Day
9h 59m
Waning Gibbous, 60% of the Moon is Illuminated
Feb 2
Waning Gibbous
Feb 3
Last Quarter
Feb 10
New
Feb 17
First Quarter
Feb 25
Full

Hourly Weather History & Observations

Time (EST) Temp. Windchill Dew Point Humidity Pressure Visibility Wind Dir Wind Speed Gust Speed Precip Events Conditions
12:25 AM 21.2 °F - 10.4 °F 63% 30.17 in 1.8 mi Calm Calm - 0.00 in Snow Light Snow
12:50 AM 21.2 °F - 12.2 °F 68% 30.17 in 1.2 mi Calm Calm - 0.00 in Snow Light Snow
12:54 AM 24.1 °F - 12.0 °F 60% 30.19 in 1.0 mi Calm Calm - 0.00 in Snow Light Snow
1:02 AM 23.0 °F - 12.2 °F 63% 30.17 in 0.8 mi Calm Calm - 0.00 in Snow Light Snow
1:54 AM 30.0 °F - 14.0 °F 51% 30.19 in 0.5 mi Calm Calm - 0.04 in Snow Snow
2:13 AM 24.8 °F - 14.0 °F 64% 30.16 in 0.5 mi Calm Calm - 0.03 in Snow Snow
2:21 AM 23.0 °F - 14.0 °F 68% 30.17 in 0.8 mi Calm Calm - 0.03 in Snow Light Snow
2:36 AM 23.0 °F - 14.0 °F 68% 30.17 in 1.0 mi Calm Calm - 0.04 in Snow Light Snow
2:42 AM 30.2 °F - 12.2 °F 47% 30.16 in 0.8 mi Calm Calm - 0.04 in Snow Light Snow
2:49 AM 23.0 °F - 14.0 °F 68% 30.16 in 1.2 mi Calm Calm - 0.04 in Snow Light Snow
2:54 AM 25.0 °F - 12.9 °F 60% 30.18 in 1.2 mi Calm Calm - 0.04 in Snow Light Snow
3:05 AM 35.6 °F 31.7 °F 12.2 °F 38% 30.15 in 2.0 mi South 4.6 mph - 0.00 in Snow Light Snow
3:15 AM 26.6 °F 21.2 °F 12.2 °F 55% 30.15 in 3.0 mi SSE 4.6 mph - 0.00 in Snow Light Snow
3:54 AM 14.0 °F 3.9 °F 8.1 °F 77% 30.16 in 10.0 mi South 6.9 mph - 0.00 in   Scattered Clouds
4:54 AM 14.0 °F 0.5 °F 7.0 °F 74% 30.16 in 10.0 mi SSW 11.5 mph - N/A   Clear
5:54 AM 12.9 °F 2.6 °F 6.1 °F 74% 30.16 in 10.0 mi SSW 6.9 mph - N/A   Overcast
6:54 AM 28.0 °F 20.0 °F 5.0 °F 38% 30.15 in 10.0 mi South 8.1 mph - N/A   Partly Cloudy
7:54 AM 28.9 °F 21.1 °F 6.1 °F 38% 30.16 in 10.0 mi SSW 8.1 mph - N/A   Overcast
8:54 AM 28.9 °F 20.4 °F 6.1 °F 38% 30.15 in 10.0 mi SSW 9.2 mph - N/A   Overcast
9:54 AM 30.0 °F 21.1 °F 6.1 °F 36% 30.13 in 10.0 mi South 10.4 mph - 0.00 in   Overcast
10:54 AM 30.0 °F 20.0 °F 6.1 °F 36% 30.12 in 10.0 mi South 12.7 mph - N/A   Overcast
11:54 AM 32.0 °F 23.6 °F 6.1 °F 34% 30.09 in 10.0 mi SSW 10.4 mph - 0.00 in   Overcast
12:37 PM 28.4 °F 17.0 °F 8.6 °F 43% 30.05 in 1.8 mi SSW 15.0 mph - 0.00 in Snow Light Snow
12:54 PM 30.0 °F 20.5 °F 10.9 °F 45% 30.06 in 1.2 mi SSW 11.5 mph - 0.00 in Snow Light Snow
1:15 PM 30.2 °F 19.8 °F 10.4 °F 44% 30.04 in 2.5 mi SSW 13.8 mph - 0.00 in Snow Light Snow
1:24 PM 30.2 °F 21.9 °F 10.4 °F 44% 30.03 in 3.0 mi South 9.2 mph 19.6 mph 0.00 in Snow Light Snow
1:39 PM 30.2 °F 20.2 °F 12.2 °F 47% 30.02 in 2.5 mi South 12.7 mph 19.6 mph 0.00 in Snow Light Snow
1:51 PM 30.2 °F 20.8 °F 12.2 °F 47% 30.02 in 3.0 mi South 11.5 mph - 0.00 in Snow Light Snow
1:54 PM 30.0 °F 20.0 °F 12.0 °F 47% 30.04 in 4.0 mi South 12.7 mph - 0.00 in Snow Light Snow
2:54 PM 30.0 °F 19.5 °F 10.9 °F 45% 30.02 in 8.0 mi South 13.8 mph - 0.00 in   Overcast
3:54 PM 32.0 °F 24.2 °F 10.9 °F 42% 30.02 in 10.0 mi South 9.2 mph - N/A   Overcast
4:54 PM 32.0 °F 24.8 °F 10.9 °F 42% 30.01 in 10.0 mi South 8.1 mph - N/A   Overcast
5:54 PM 33.1 °F 26.9 °F 12.0 °F 42% 30.01 in 10.0 mi South 6.9 mph - N/A   Overcast
6:54 PM 34.0 °F 28.8 °F 12.9 °F 42% 30.01 in 10.0 mi South 5.8 mph - N/A   Overcast
7:54 PM 26.1 °F 21.9 °F 12.9 °F 58% 30.02 in 10.0 mi SSE 3.5 mph - N/A   Overcast
8:54 PM 21.0 °F - 10.9 °F 65% 30.02 in 10.0 mi Calm Calm - N/A   Overcast
9:54 PM - - - N/A% 29.99 in 10.0 mi SSE 5.8 mph - N/A   Overcast
10:54 PM 18.0 °F 8.7 °F 12.0 °F 78% 30.00 in 10.0 mi South 6.9 mph - N/A   Partly Cloudy
11:54 PM 12.0 °F 4.1 °F 9.0 °F 88% 29.99 in 10.0 mi South 4.6 mph - N/A   Clear